Los Angeles, CA

6:03 AM PDT on October 01, 2016 (GMT -0700)
Los Angeles International

Weather History for KLAX - October, 2013

Change the Weather History Date:

Friday, October 25, 2013

  Actual Average Record
Temperature  
Mean Temperature 64 °F 65 °F  
Max Temperature 67 °F 72 °F 92 °F (1983)
Min Temperature 60 °F 58 °F 48 °F (1971)
Degree Days  
Heating Degree Days 1 2  
Month to date heating degree days 21 24  
Since 1 July heating degree days 22 33  
Cooling Degree Days 0 2  
Month to date cooling degree days 71 57  
Year to date cooling degree days 662 525  
Growing Degree Days 14 (Base 50)    
Moisture  
Dew Point 56 °F    
Average Humidity 79    
Maximum Humidity 90    
Minimum Humidity 68    
Precipitation  
Precipitation 0.00 in 0.03 in 0.19 in (1951)
Month to date precipitation 0.02 0.40  
Year to date precipitation 2.66 9.50  
Since 1 July precipitation 0.05  
Sea Level Pressure  
Sea Level Pressure 30.07 in    
Wind  
Wind Speed 7 mph (WNW)    
Max Wind Speed 16 mph    
Max Gust Speed 18 mph    
Visibility 8 miles    
Events Fog    
T = Trace of Precipitation, MM = Missing Value Source: NWS Daily Summary

Daily Weather History Graph

Daily Weather History Graph

Search for Another Location

Airport or City:

Trip Planner

Search our weather history database for the weather conditions in past years. The results will help you decide how hot, cold, wet, or windy it might be!

Date:

Astronomy

Oct. 25, 2013 Rise Set
Actual Time 7:07 AM PDT 6:07 PM PDT
Civil Twilight 6:41 AM PDT 6:33 PM PDT
Nautical Twilight 6:12 AM PDT 7:02 PM PDT
Astronomical Twilight 5:43 AM PDT 7:31 PM PDT
Moon 11:35 PM PDT (10/25) 12:46 PM PDT (10/25)
Length of Visible Light 11h 51m
Length of Day
11h 00m
Waning Gibbous, 61% of the Moon is Illuminated
Oct 25
Waning Gibbous
Oct 26
Last Quarter
Nov 3
New
Nov 9
First Quarter
Nov 17
Full

Hourly Weather History & Observations

Time (PDT) Temp. Dew Point Humidity Pressure Visibility Wind Dir Wind Speed Gust Speed Precip Events Conditions
12:30 AM 60.8 °F 55.4 °F 82% 30.05 in 10.0 mi NNW 5.8 mph - N/A   Scattered Clouds
12:53 AM 60.1 °F 55.0 °F 83% 30.06 in 10.0 mi NNW 3.5 mph - N/A   Scattered Clouds
1:01 AM 60.8 °F 55.4 °F 82% 30.06 in 10.0 mi NW 4.6 mph - N/A   Mostly Cloudy
1:53 AM 61.0 °F 55.0 °F 81% 30.07 in 10.0 mi NW 3.5 mph - N/A   Mostly Cloudy
2:53 AM 61.0 °F 55.0 °F 81% 30.07 in 10.0 mi Calm Calm - N/A   Overcast
3:53 AM 61.0 °F 55.0 °F 81% 30.06 in 9.0 mi Calm Calm - N/A   Overcast
4:53 AM 62.1 °F 55.0 °F 78% 30.07 in 9.0 mi NNW 4.6 mph - N/A   Overcast
5:53 AM 62.1 °F 55.0 °F 78% 30.09 in 9.0 mi NE 4.6 mph - N/A   Overcast
6:53 AM 62.1 °F 55.0 °F 78% 30.09 in 7.0 mi NE 3.5 mph - N/A Fog Patches of Fog
7:53 AM 62.1 °F 55.0 °F 78% 30.10 in 6.0 mi NE 4.6 mph - N/A Fog Patches of Fog
8:53 AM 62.1 °F 55.0 °F 78% 30.12 in 5.0 mi SE 4.6 mph - N/A Fog Patches of Fog
9:53 AM 64.0 °F 55.0 °F 73% 30.13 in 5.0 mi North 3.5 mph - N/A Fog Patches of Fog
10:53 AM 64.9 °F 55.0 °F 70% 30.12 in 4.0 mi Calm Calm - N/A Fog Patches of Fog
11:53 AM 64.9 °F 55.0 °F 70% 30.12 in 5.0 mi West 9.2 mph - N/A   Mostly Cloudy
12:02 PM 64.4 °F 55.4 °F 73% 30.11 in 5.0 mi WSW 5.8 mph - N/A   Haze
12:53 PM 66.0 °F 55.0 °F 68% 30.09 in 7.0 mi West 8.1 mph - N/A   Scattered Clouds
1:53 PM 66.0 °F 55.0 °F 68% 30.07 in 7.0 mi West 9.2 mph - N/A   Partly Cloudy
2:53 PM 66.0 °F 55.9 °F 70% 30.04 in 8.0 mi West 8.1 mph - N/A   Partly Cloudy
3:53 PM 66.0 °F 55.9 °F 70% 30.03 in 7.0 mi West 9.2 mph - N/A   Mostly Cloudy
4:53 PM 63.0 °F 57.0 °F 81% 30.02 in 6.0 mi West 11.5 mph - N/A   Haze
5:53 PM 62.1 °F 57.0 °F 84% 30.02 in 5.0 mi West 11.5 mph - N/A   Haze
6:53 PM 62.1 °F 57.0 °F 84% 30.04 in 7.0 mi West 12.7 mph - N/A   Mostly Cloudy
7:53 PM 62.1 °F 57.9 °F 86% 30.04 in 8.0 mi West 11.5 mph - N/A   Mostly Cloudy
8:40 PM 62.6 °F 57.2 °F 82% 30.05 in 9.0 mi West 8.1 mph - N/A   Scattered Clouds
8:53 PM 62.1 °F 57.9 °F 86% 30.05 in 9.0 mi West 9.2 mph - N/A   Scattered Clouds
9:53 PM 62.1 °F 57.9 °F 86% 30.05 in 10.0 mi WNW 5.8 mph - N/A   Scattered Clouds
10:21 PM 62.6 °F 57.2 °F 82% 30.07 in 9.0 mi West 10.4 mph - N/A   Mostly Cloudy
10:53 PM 62.1 °F 57.9 °F 86% 30.08 in 9.0 mi West 16.1 mph - N/A   Mostly Cloudy
11:53 PM 61.0 °F 57.9 °F 90% 30.07 in 8.0 mi West 9.2 mph - N/A   Mostly Cloudy